{"data":{"norad_id":48985,"intl_designator":"2021-060U","name":"ONEWEB-0267","alt_names":[],"object_type":"PAYLOAD","status":"ACTIVE","operator":null,"country":"UK","launch_date":"2021-07-01","launch_site_code":"VOSTO","launch_vehicle":null,"mission":null,"orbit_class":"UNKNOWN","rcs_meters":null,"size_class":null,"mass_kg":null,"dimensions":null,"purposes":["comms"],"wikipedia_slug":null,"has_3d_model":false,"image_url":null,"decayed_at":null,"tle_current":{"epoch":"2026-09-20T03:17:13.922016Z","epoch_age_seconds":57048,"freshness":"FRESH","line1":"1 48985U 21060U   26263.13696669  .00000083  00000+0  18255-3 0  9992","line2":"2 48985  87.9149 209.9219 0002090  72.1883 287.9475 13.16593597252084","mean_motion":13.16593597,"eccentricity":0.000209,"inclination_deg":87.9149,"raan_deg":209.9219,"arg_perigee_deg":72.1883,"mean_anomaly_deg":287.9475,"bstar":0.00018255,"rev_number":25208,"period_min":109.37315837485,"perigee_km":1196.1758366196,"apogee_km":1199.3425612308,"semimajor_km":7575.8961989252,"source":"CELESTRAK","updated_at":"2026-09-20T09:00:44.626584Z"}}}